ALANSN-2 Weather Reports


time (UTC)temp
C
wind
direction
speed
KPH
gust
KPH
rain 1hr
cm
rain 24hr
cm
rain mn
cm
humidity
%
barometer
mb
20260502182002 5 268 20.9 22.5 0.00 0.00 0.00 64 1022.9
20260502181501 5 284 19.3 20.9 0.00 0.00 0.00 61 1022.9
20260502164002 5 258 22.5 24.1 0.00 0.00 0.00 66 1023.1
20260502163501 5 258 27.4 32.2 0.00 0.00 0.00 62 1023.1
20260502163002 5 268 25.7 30.6 0.00 0.00 0.00 62 1023.1
20260502162502 5 259 17.7 20.9 0.00 0.00 0.00 61 1023.2
20260502162002 5 283 20.9 24.1 0.00 0.00 0.00 58 1023.1
20260502161502 5 287 19.3 22.5 0.00 0.00 0.00 65 1023.3
20260502161001 5 273 19.3 22.5 0.00 0.00 0.00 66 1023.3
20260502151502 4 290 17.7 19.3 0.00 0.00 0.00 67 1024.0
20260502130502 2 290 8.0 9.7 0.00 0.00 0.00 82 1025.4
20260502123002 1 279 8.0 9.7 0.00 0.00 0.00 86 1025.9
20260502122002 1 292 8.0 9.7 0.00 0.00 0.00 86 1026.1
20260502121501 1 291 6.4 6.4 0.00 0.00 0.00 86 1026.1
20260502121002 1 276 6.4 6.4 0.00 0.00 0.00 86 1026.2
20260502120501 0 299 4.8 4.8 0.00 0.00 0.00 89 1026.2
20260502115502 0 294 4.8 6.4 0.00 0.00 0.00 89 1026.4
20260502115002 0 283 6.4 6.4 0.00 0.00 0.00 89 1026.4
20260502114001 0 286 8.0 9.7 0.00 0.00 0.00 91 1026.3
20260502113502 0 287 6.4 8.0 0.00 0.00 0.00 93 1026.3
20260502113002 0 297 9.7 9.7 0.00 0.00 0.00 95 1026.3
20260502112502 0 287 4.8 6.4 0.00 0.00 0.00 97 1026.3
20260502112002 -1 307 3.2 4.8 0.00 0.00 0.00 98 1026.3
20260502111002 -1 300 1.6 3.2 0.00 0.00 0.00 98 1026.3
20260502110501 -2 353 3.2 3.2 0.00 0.00 0.00 99 1026.2
20260502110002 -2 307 4.8 4.8 0.00 0.00 0.00 99 1026.2
20260502105502 -2 348 3.2 4.8 0.00 0.00 0.00 99 1026.4
20260502105001 -2 354 3.2 3.2 0.00 0.00 0.00 99 1026.3
20260502104502 -2 328 1.6 3.2 0.00 0.00 0.00 99 1026.2
20260502103502 -2 332 1.6 3.2 0.00 0.00 0.00 99 1026.2
20260502103001 -2 280 1.6 3.2 0.00 0.00 0.00 99 1026.2
20260502100502 -3 60 3.2 3.2 0.00 0.00 0.00 99 1026.4
20260502091502 -3 62 0.0 0.0 0.00 0.00 0.00 99 1026.1
20260502091001 -3 73 1.6 3.2 0.00 0.00 0.00 99 1026.0
20260502090502 -3 60 3.2 3.2 0.00 0.00 0.00 99 1026.2
20260502071501 -3 100 1.6 3.2 0.00 0.00 0.00 99 1025.6
20260502070502 -3 94 1.6 3.2 0.00 0.00 0.00 99 1025.4
20260502070002 -3 122 0.0 0.0 0.00 0.00 0.00 99 1025.6
20260502065001 -3 127 0.0 0.0 0.00 0.00 0.00 99 1025.6
20260502064502 -3 134 0.0 0.0 0.00 0.00 0.00 99 1025.6
20260502064001 -3 52 3.2 4.8 0.00 0.00 0.00 99 1025.6
20260502063502 -3 115 0.0 0.0 0.00 0.00 0.00 99 1025.6
20260502063002 -3 135 0.0 0.0 0.00 0.00 0.00 98 1025.5
20260502062002 -2 131 0.0 0.0 0.00 0.00 0.00 99 1025.6
20260502061502 -2 112 0.0 0.0 0.00 0.00 0.00 98 1025.6
20260502061002 -2 63 0.0 0.0 0.00 0.00 0.00 98 1025.5
20260502060501 -2 59 0.0 0.0 0.00 0.00 0.00 98 1025.2
20260502055501 -2 68 0.0 0.0 0.00 0.00 0.00 98 1025.4
20260502055002 -2 67 0.0 0.0 0.00 0.00 0.00 98 1025.4
20260502054501 -2 69 0.0 0.0 0.00 0.00 0.00 98 1025.4
20260502054002 -2 70 0.0 0.0 0.00 0.00 0.00 98 1025.4
20260502053001 -2 61 0.0 0.0 0.00 0.00 0.00 98 1025.3
20260502052502 -2 53 3.2 3.2 0.00 0.00 0.00 98 1025.5
20260502052001 -2 54 3.2 3.2 0.00 0.00 0.00 98 1025.2
20260502051502 -2 53 3.2 3.2 0.00 0.00 0.00 98 1025.3
20260502051001 -2 55 3.2 4.8 0.00 0.00 0.00 98 1025.3
20260502050502 -2 60 1.6 3.2 0.00 0.00 0.00 98 1025.1
20260502050001 -2 67 1.6 3.2 0.00 0.00 0.00 98 1025.3
20260502045502 -2 69 0.0 0.0 0.00 0.00 0.00 98 1025.1
20260502044502 -2 55 3.2 3.2 0.00 0.00 0.00 98 1025.1
20260502041502 -1 64 1.6 3.2 0.00 0.00 0.00 97 1025.0
20260502040502 -1 62 1.6 3.2 0.00 0.00 0.00 97 1025.0
20260502035502 -1 57 3.2 3.2 0.00 0.00 0.00 96 1024.9
20260502034002 -1 55 3.2 3.2 0.00 0.00 0.00 95 1025.0
20260502033501 -1 59 3.2 4.8 0.00 0.00 0.00 95 1025.0
20260502033002 0 59 3.2 4.8 0.00 0.00 0.00 95 1024.8
20260502031002 0 339 3.2 3.2 0.00 0.00 0.00 94 1024.7
20260502030001 0 348 3.2 3.2 0.00 0.00 0.00 93 1024.7
20260502025001 0 285 0.0 0.0 0.00 0.00 0.00 94 1024.6
20260502024502 0 357 1.6 3.2 0.00 0.00 0.00 93 1024.5
20260502024001 0 348 0.0 0.0 0.00 0.00 0.00 92 1024.8
20260502023502 1 350 1.6 3.2 0.00 0.00 0.00 91 1024.7
20260502022502 1 338 3.2 3.2 0.00 0.00 0.00 89 1024.7
20260502022002 2 226 3.2 4.8 0.00 0.00 0.00 90 1024.4
20260502020501 2 311 4.8 6.4 0.00 0.00 0.00 90 1024.6
20260502020002 2 342 4.8 6.4 0.00 0.00 0.00 90 1024.6
20260502015501 2 301 6.4 8.0 0.00 0.00 0.00 90 1024.4
20260502015002 2 266 3.2 4.8 0.00 0.00 0.00 90 1024.5
20260502014502 2 268 9.7 11.3 0.00 0.00 0.00 90 1024.2
20260502014001 2 290 8.0 9.7 0.00 0.00 0.00 91 1024.2
20260502013502 2 255 14.5 16.1 0.00 0.00 0.00 91 1024.2
20260502012002 2 289 9.7 11.3 0.00 0.00 0.00 89 1024.1
20260502011002 2 288 9.7 9.7 0.00 0.00 0.00 89 1023.9
20260502004502 2 308 11.3 14.5 0.00 0.00 0.00 88 1023.7
20260502004002 2 299 4.8 6.4 0.00 0.00 0.00 89 1023.8
20260502001502 2 286 14.5 16.1 0.00 0.00 0.00 87 1023.4
20260502001001 2 284 14.5 16.1 0.00 0.00 0.00 88 1023.6
20260501235502 2 295 9.7 11.3 0.00 0.00 0.00 87 1023.4
20260501234002 3 287 16.1 19.3 0.00 0.00 0.00 85 1023.2
20260501232501 3 276 11.3 16.1 0.00 0.00 0.00 83 1023.4
20260501230001 3 272 11.3 14.5 0.00 0.00 0.00 82 1023.2
20260501225001 3 318 12.9 17.7 0.00 0.00 0.00 79 1023.1
20260501224002 3 263 22.5 25.7 0.00 0.00 0.00 81 1023.2
20260501223501 3 293 19.3 20.9 0.00 0.00 0.00 84 1023.0
20260501223002 3 266 20.9 22.5 0.00 0.00 0.00 81 1023.0
20260501222002 3 294 14.5 16.1 0.00 0.00 0.00 79 1022.8
20260501221502 3 301 17.7 22.5 0.00 0.00 0.00 80 1022.7
20260501221002 3 299 17.7 22.5 0.00 0.00 0.00 77 1022.7
20260501220502 3 300 14.5 17.7 0.00 0.00 0.00 77 1022.6
20260501215502 3 323 9.7 14.5 0.00 0.00 0.00 75 1022.5
20260501215001 4 233 14.5 16.1 0.00 0.00 0.00 78 1022.6
20260501214502 3 274 9.7 11.3 0.00 0.00 0.00 76 1022.6
20260501214001 3 268 17.7 20.9 0.00 0.00 0.00 76 1022.4
20260501213502 3 304 9.7 14.5 0.00 0.00 0.00 76 1022.3
20260501213001 3 253 17.7 22.5 0.00 0.00 0.00 77 1022.2
20260501212502 4 282 8.0 9.7 0.00 0.00 0.00 77 1022.1
20260501211002 3 276 11.3 16.1 0.00 0.00 0.00 79 1022.1
20260501210502 3 286 8.0 14.5 0.00 0.00 0.00 78 1022.2
20260501210002 4 263 14.5 17.7 0.00 0.00 0.00 79 1022.3
20260501204501 3 279 19.3 20.9 0.00 0.00 0.00 81 1021.7
20260501203002 3 292 29.0 30.6 0.00 0.00 0.00 79 1021.8
20260501202502 3 279 17.7 20.9 0.00 0.00 0.00 79 1021.9
20260501202002 3 268 11.3 16.1 0.00 0.00 0.00 77 1022.1
20260501201502 4 278 19.3 22.5 0.00 0.00 0.00 76 1021.9
20260501201002 4 272 14.5 17.7 0.00 0.00 0.00 78 1021.9
20260501200502 5 278 17.7 20.9 0.00 0.00 0.00 74 1021.8
20260501200002 5 290 11.3 14.5 0.00 0.00 0.00 73 1021.8
20260501195502 5 305 6.4 8.0 0.00 0.00 0.00 62 1021.9
20260501195001 5 265 9.7 11.3 0.00 0.00 0.00 72 1021.7
20260501194502 5 321 11.3 16.1 0.00 0.00 0.00 62 1021.8
20260501194001 6 275 6.4 9.7 0.00 0.00 0.00 59 1022.0
20260501193502 6 349 8.0 8.0 0.00 0.00 0.00 60 1021.7
20260501193002 5 354 6.4 8.0 0.00 0.00 0.00 60 1022.0
20260501192002 4 277 20.9 22.5 0.00 0.00 0.00 74 1021.9
20260501191501 5 262 17.7 20.9 0.00 0.00 0.00 74 1021.8
20260501190501 4 284 17.7 19.3 0.00 0.00 0.00 78 1021.7
20260501190002 4 280 14.5 17.7 0.00 0.00 0.00 77 1021.9
20260501185502 4 259 16.1 17.7 0.00 0.00 0.00 78 1021.5
20260501185002 3 267 14.5 17.7 0.00 0.00 0.00 78 1021.7
20260501184501 3 267 14.5 17.7 0.00 0.00 0.00 79 1021.7
20260501184002 3 269 11.3 11.3 0.00 0.00 0.00 76 1021.7
20260501183501 3 270 16.1 17.7 0.00 0.00 0.00 76 1021.8